Lapse_Rate
5.7 5.8 5.9 6.0 6.0 6.1 6.0 6.0 6.2 6.3 6.3 6.5 6.5 6.6 6.4 6.3 6.2 6.1 6.3 6.3 6.6 6.9 6.9 6.8 6.8 6.9 7.0 7.1 7.3 7.1 7.0 7.3 7.0 7.0 6.6 6.4 6.2 5.9 5.7 5.7 6.0 6.2 6.6 6.8 7.0
5.8 5.8 5.9 6.0 6.1 6.1 6.1 6.1 6.2 6.4 6.5 6.5 6.7 6.7 6.6 6.4 6.3 6.2 6.4 6.3 6.6 7.0 7.2 7.2 7.3 7.3 7.3 7.5 7.5 7.1 7.6 7.2 6.8 6.6 6.5 6.3 6.2 5.9 5.7 5.8 6.6 6.6 6.5 6.7 6.8
5.9 5.9 6.0 6.1 6.2 6.2 6.2 6.3 6.3 6.5 6.6 6.7 6.7 6.7 6.7 6.5 6.4 6.4 6.5 6.4 6.5 6.9 7.3 7.4 7.8 7.7 7.0 7.3 7.4 7.5 7.3 7.3 7.1 7.0 6.4 6.3 6.1 6.1 5.9 6.0 6.2 6.9 6.3 6.6 6.7
5.9 6.0 6.0 6.1 6.3 6.4 6.4 6.4 6.4 6.6 6.8 6.9 6.8 6.8 6.7 6.6 6.6 6.5 6.5 6.5 6.5 6.8 7.2 7.5 8.0 7.2 7.8 7.9 7.6 7.3 7.5 7.4 7.5 7.3 6.7 6.3 6.0 6.2 6.2 6.0 6.2 6.4 6.2 6.4 6.6
5.9 5.9 6.0 6.1 6.2 6.5 6.6 6.6 6.6 6.7 6.8 7.0 7.0 6.9 6.8 6.6 6.6 6.6 6.5 6.5 6.5 6.7 7.1 7.4 7.6 7.6 7.9 7.8 7.8 7.8 7.4 7.6 7.7 7.5 7.0 6.7 6.1 6.1 6.0 5.8 6.2 6.2 6.1 6.0 6.4
6.1 6.1 6.1 6.1 6.2 6.5 6.7 6.7 6.7 6.7 6.8 7.0 7.1 6.9 6.8 6.5 6.7 6.6 6.7 6.5 6.6 6.7 7.2 7.4 7.7 7.8 7.7 7.7 7.7 7.7 7.5 7.3 7.6 7.4 7.3 6.7 6.6 6.1 6.3 6.0 6.1 6.1 6.0 5.9 6.1
6.0 6.1 6.2 6.2 6.2 6.4 6.7 6.8 6.9 6.8 6.9 7.1 7.1 7.0 6.8 6.6 6.9 6.6 6.7 6.6 6.6 6.8 7.2 7.5 7.6 7.9 8.0 7.9 8.4 8.0 7.8 7.1 7.3 7.4 7.2 6.8 6.7 6.4 6.1 6.4 6.2 5.8 5.5 5.5 5.9
6.0 6.1 6.2 6.3 6.3 6.5 6.6 6.8 6.9 6.9 6.9 7.1 7.1 7.1 7.1 6.9 7.0 6.7 6.7 6.7 6.7 6.8 7.0 7.4 7.5 7.7 8.0 8.4 8.1 8.0 8.1 9.0 7.9 7.5 7.6 7.3 7.3 6.9 6.7 6.5 6.0 5.6 5.3 5.2 5.8
6.0 6.1 6.1 6.1 6.2 6.6 6.6 6.7 6.9 6.9 6.9 7.0 7.1 7.1 7.0 7.0 7.0 6.9 6.8 6.8 6.9 7.0 6.9 7.3 7.6 7.7 7.9 8.4 9.1 8.7 9.4 8.9 8.5 8.1 8.1 7.4 7.5 7.2 6.9 6.5 6.0 5.7 5.6 5.2 5.3
6.1 6.3 6.3 6.3 6.3 6.7 6.7 6.8 6.8 6.9 6.9 6.9 7.1 7.0 7.1 7.1 7.1 7.1 7.0 7.0 7.1 7.1 7.1 7.4 7.6 7.9 8.4 8.7 9.0 8.6 8.9 8.9 8.8 8.1 7.9 7.4 7.4 7.5 7.1 6.5 6.1 5.8 5.6 5.5 5.3
6.2 6.4 6.5 6.4 6.5 6.7 6.7 6.8 6.9 6.9 6.9 6.9 6.9 7.1 7.1 7.1 7.0 7.1 7.1 7.2 7.4 7.3 7.3 7.5 7.9 8.5 8.3 8.1 7.9 8.2 8.4 8.9 8.4 8.5 7.7 7.7 7.5 7.4 7.2 6.5 6.1 5.9 5.8 5.6 5.5
6.4 6.5 6.5 6.4 6.5 6.6 6.7 6.8 6.9 7.0 6.9 7.1 7.1 7.1 7.1 7.2 6.9 7.0 7.1 7.1 7.4 7.4 7.4 7.6 8.3 8.1 7.9 8.1 8.2 8.5 8.9 8.9 8.8 9.0 8.5 7.8 7.5 7.1 7.4 6.9 6.2 6.0 5.8 5.8 5.6
6.6 6.6 6.5 6.5 6.6 6.6 6.8 6.9 7.1 7.1 7.1 7.1 7.2 7.0 7.0 7.0 6.7 7.0 7.1 6.7 6.9 7.6 7.6 8.0 8.2 8.0 8.0 8.5 8.8 9.4 9.0 8.8 8.9 8.6 8.4 8.2 8.0 7.4 7.5 7.0 6.4 6.1 6.0 5.9 5.8
6.5 6.5 6.6 6.6 6.7 6.7 6.9 7.1 7.3 7.5 7.4 7.0 7.1 7.1 7.0 7.0 6.8 7.0 6.8 6.9 7.0 7.7 7.7 7.8 7.8 8.1 8.3 8.6 8.8 9.7 8.8 8.7 8.5 8.8 9.6 8.5 9.5 7.9 7.4 7.6 7.5 7.3 6.4 6.1 6.0
6.5 6.6 6.6 6.6 6.7 6.9 7.1 7.4 7.6 7.8 9.2 7.2 7.1 7.3 7.2 6.9 7.0 7.2 6.9 6.7 7.3 7.4 7.3 8.0 7.7 8.0 8.5 8.7 8.6 9.3 8.9 8.9 8.9 9.3 9.3 8.6 9.2 8.4 7.7 7.2 7.3 7.7 7.0 6.4 6.0
6.6 6.7 6.6 6.7 6.8 7.0 7.3 7.6 7.8 8.2 8.3 7.4 7.3 7.1 7.0 7.1 7.0 7.1 7.1 6.7 6.9 7.1 7.3 7.4 7.2 7.8 8.2 8.2 8.4 8.7 8.7 8.7 8.7 9.3 9.8 9.1 9.0 9.4 8.5 8.0 8.0 7.9 7.6 7.1 6.9
6.6 6.6 6.6 6.9 7.1 7.3 7.5 7.8 8.1 9.1 7.9 7.8 7.6 7.3 7.6 7.4 7.2 7.2 7.1 7.1 7.7 7.8 8.1 7.9 7.8 8.0 8.2 8.3 8.7 8.8 9.3 9.8 9.8 9.9 9.8 9.0 9.2 9.3 8.9 8.3 8.0 8.2 7.9 7.6 7.3
6.7 6.7 6.8 7.1 7.4 7.5 7.7 7.8 8.6 8.3 8.1 7.8 7.7 7.7 7.8 7.5 7.4 7.2 7.4 7.6 7.2 7.5 8.0 8.6 8.6 8.2 8.4 8.4 9.3 9.0 9.4 9.7 9.5 9.8 9.9 9.1 9.7 9.3 8.7 8.3 8.6 8.2 8.0 7.7 7.8
6.6 6.6 6.8 7.0 7.4 7.7 8.0 8.5 8.1 7.9 7.8 8.1 8.2 8.5 8.1 7.8 7.9 7.8 7.9 8.0 7.7 7.6 8.1 8.6 8.8 8.0 8.1 8.0 8.4 9.4 9.0 9.2 9.7 9.3 9.7 9.7 9.6 9.0 8.7 8.4 8.7 8.3 8.0 8.0 8.0
6.5 6.7 7.0 7.3 7.6 7.8 8.0 7.9 7.8 8.0 8.1 8.1 8.7 8.5 8.7 8.3 8.3 8.4 8.0 7.8 7.4 7.8 7.7 8.2 8.6 8.3 8.1 8.4 8.5 8.7 8.9 9.3 9.5 9.7 9.6 9.7 9.7 9.1 8.4 8.8 8.2 8.2 8.2 7.8 7.6
6.6 6.8 7.1 7.4 7.7 7.8 8.1 7.9 7.8 8.2 8.4 8.3 8.5 8.5 8.3 8.4 8.6 8.5 8.0 7.8 8.0 7.6 8.1 8.2 8.7 8.7 8.6 8.6 9.0 8.9 9.2 9.2 9.6 9.5 9.9 9.8 9.4 9.0 8.8 8.6 8.5 8.3 8.3 8.0 7.9
6.5 6.6 7.1 7.3 7.5 7.7 7.7 8.0 8.2 8.0 8.3 8.1 8.1 8.1 8.2 8.2 8.4 8.4 8.4 8.0 8.3 8.4 8.0 8.2 9.3 9.7 9.0 8.7 8.8 8.7 8.9 9.3 9.7 9.3 9.4 9.6 9.4 9.2 8.9 8.7 8.7 8.5 8.5 8.2 8.0
6.3 6.6 7.0 7.2 7.3 7.3 7.4 7.4 7.5 7.6 7.9 7.7 7.8 7.9 8.1 8.1 8.3 8.2 7.8 8.2 8.6 8.5 8.2 8.4 9.2 9.6 9.2 8.9 8.7 9.0 8.8 9.0 9.3 9.5 9.6 9.6 9.2 8.3 8.8 8.4 8.6 8.7 8.5 8.4 8.2
6.3 6.5 6.6 6.9 7.1 7.0 7.1 7.0 7.0 7.1 7.1 7.2 7.0 7.3 7.6 7.8 7.9 8.0 8.0 8.0 8.2 8.5 8.6 8.7 9.2 9.6 9.7 9.4 9.5 9.1 8.8 8.8 9.2 9.7 9.6 9.7 9.5 8.5 8.6 8.6 8.5 8.5 8.5 8.4 8.3
6.4 6.4 6.5 6.2 6.5 6.7 6.7 6.8 6.8 6.8 7.0 7.1 6.9 6.9 7.1 7.5 7.6 7.7 7.6 7.8 7.9 8.1 8.4 8.4 9.4 8.8 8.9 9.0 9.1 9.2 9.1 8.8 9.2 9.1 9.5 9.3 8.6 7.2 8.3 8.4 8.5 8.5 8.6 8.5 8.3
6.3 6.3 6.4 6.4 6.4 6.4 6.4 6.5 6.3 6.4 6.6 6.4 6.5 6.7 6.8 6.9 6.7 6.8 6.7 7.2 7.3 7.5 7.6 8.2 8.7 8.6 8.9 8.6 8.7 9.0 8.7 8.7 8.6 8.5 8.6 8.4 8.4 7.7 7.8 8.0 8.0 8.2 8.4 8.3 8.5
6.4 6.3 6.2 6.2 6.1 6.2 6.1 6.2 6.2 6.3 6.3 6.4 6.5 6.3 6.3 6.2 6.7 6.8 6.9 6.8 6.6 7.1 7.1 7.5 8.2 8.3 9.2 8.2 8.4 8.7 8.8 8.5 8.4 8.1 8.1 8.6 7.6 7.6 7.5 7.6 7.3 7.5 7.8 8.0 8.0
Wind_Speed
19 19 20 22 22 21 21 21 19 19 18 18 16 15 15 14 18 6 6 5 7 24 13 12 10 7 6 2 3 1 5 6 6 5 10 11 12 6 8 11 4 4 11 21 20
19 20 21 22 23 22 22 21 21 19 18 18 16 14 14 13 7 8 8 13 30 21 16 12 8 8 4 3 2 3 3 5 4 5 12 10 11 12 12 10 11 15 18 21 20
19 20 21 23 24 23 22 22 21 19 17 16 16 14 12 12 5 5 10 18 23 22 8 3 3 6 0 3 3 2 3 3 6 6 7 11 12 9 11 10 14 21 21 20 19
19 20 21 22 24 24 23 21 21 18 17 15 15 13 12 7 4 5 11 19 17 14 9 6 4 4 2 5 4 5 8 3 7 4 5 10 11 8 7 12 17 19 21 19 18
21 21 20 21 23 24 24 22 21 20 17 15 14 12 7 7 5 9 16 17 15 11 7 2 4 5 10 3 2 1 7 6 4 6 7 10 8 8 9 15 19 19 18 17 15
21 21 21 22 23 24 25 23 23 22 19 15 12 9 6 7 3 10 14 17 10 9 4 3 4 7 3 3 4 2 3 9 9 8 9 11 10 10 11 15 20 19 18 17 15
21 21 21 22 24 24 25 25 25 23 18 11 8 5 6 5 2 10 13 12 6 5 3 1 5 7 8 3 4 0 4 7 10 11 8 11 10 9 16 15 20 20 18 17 16
21 20 21 22 23 24 25 26 25 21 15 8 9 5 1 2 4 10 9 7 7 4 1 2 3 7 5 6 4 3 7 2 9 11 8 10 9 9 16 17 18 21 19 17 17
21 21 21 21 22 24 25 26 22 8 4 9 7 6 6 3 7 12 10 5 7 5 5 5 7 5 6 9 5 3 9 7 7 9 6 11 8 14 16 16 17 19 19 18 17
20 20 20 20 21 22 26 23 3 4 6 5 3 5 6 6 9 10 8 6 4 8 7 7 6 7 7 6 9 11 12 8 5 9 8 9 7 12 16 16 18 18 19 19 18
21 21 21 20 20 19 14 4 5 6 7 5 3 3 7 8 9 10 11 9 6 8 10 6 9 6 9 9 9 11 10 6 7 3 7 8 6 9 14 16 17 17 18 20 19
20 20 19 19 19 19 7 4 5 5 3 5 7 6 4 1 8 9 11 11 8 13 6 8 11 1 4 8 8 7 8 6 4 3 7 4 8 11 14 16 17 18 18 19 20
20 19 17 18 20 8 4 4 4 4 5 5 3 4 5 7 5 13 17 10 11 12 12 13 7 2 5 7 9 3 9 8 8 3 4 5 8 13 15 13 15 16 18 18 20
20 17 14 19 7 1 3 2 7 5 6 6 7 6 8 5 6 6 14 8 6 12 6 9 2 9 12 10 8 7 6 5 1 7 8 2 2 10 14 17 18 18 18 18 19
18 13 11 8 5 3 4 5 2 4 5 4 8 6 5 6 9 6 9 8 6 9 7 4 4 7 12 8 5 8 6 6 5 10 8 7 6 7 10 14 19 20 20 19 18
15 10 6 4 3 2 5 4 4 6 5 5 5 10 13 7 5 9 11 6 4 4 9 12 2 6 6 4 7 10 10 9 7 8 5 6 8 11 6 9 16 20 21 20 20
13 8 6 2 3 3 4 4 6 2 3 7 8 13 14 10 7 8 12 13 7 8 11 10 14 13 7 11 9 9 13 6 3 5 5 3 6 10 5 2 6 18 21 21 20
10 5 9 4 4 6 5 6 4 4 7 5 5 10 9 7 3 3 11 9 7 6 5 4 10 15 11 14 7 6 9 8 3 2 3 2 2 8 8 3 4 10 18 21 21
2 3 3 2 2 4 6 1 5 4 3 8 10 11 10 8 2 6 6 2 2 8 6 3 3 6 3 3 5 4 10 6 8 5 7 3 8 13 13 13 8 8 13 19 21
3 3 4 1 3 6 4 9 6 6 4 4 5 4 8 7 10 9 6 4 2 4 7 1 4 2 8 4 4 6 3 6 5 2 5 6 2 9 10 12 11 6 10 14 17
4 3 4 1 4 4 7 6 7 9 4 7 4 6 6 6 3 5 3 5 5 2 5 7 6 8 6 3 4 6 8 1 2 5 3 4 6 7 10 8 12 9 1 11 14
4 0 3 2 2 1 7 4 4 7 6 6 7 8 8 3 3 3 3 5 9 3 4 7 5 2 9 5 2 2 5 8 7 8 2 5 4 9 12 10 10 10 6 2 8
2 3 3 4 4 7 6 7 11 9 10 5 5 8 5 3 2 2 1 4 8 5 0 6 7 7 8 8 5 3 3 2 4 2 2 7 6 7 14 12 11 12 11 5 4
3 1 4 5 3 3 4 6 6 8 11 7 5 2 3 4 4 3 3 3 3 10 5 3 4 8 4 4 5 7 4 1 7 7 5 7 9 17 16 13 13 13 13 9 2
4 4 3 3 6 6 4 3 5 4 4 7 3 7 5 1 2 1 2 2 4 3 1 4 4 4 2 2 2 3 4 3 6 7 8 11 10 11 11 12 14 15 18 15 12
4 3 1 3 1 1 2 4 6 5 6 3 3 4 5 2 5 6 7 2 3 6 6 3 2 5 5 3 4 7 3 4 3 2 4 4 4 8 9 11 12 12 12 13 15
4 1 5 1 1 3 4 4 5 6 3 5 6 7 4 4 8 10 9 10 11 8 8 7 5 6 12 5 7 10 11 6 3 1 6 6 8 5 7 10 9 10 13 14 14
Wind_Direction
339 335 332 331 331 331 330 329 328 328 331 329 333 332 323 323 302 222 241 107 170 168 185 155 189 192 201 249 244 216 219 132 126 156 133 142 127 113 113 134 132 120 139 133 146
334 331 329 327 327 329 328 326 325 327 329 327 328 325 319 324 276 245 113 146 146 167 172 175 179 181 203 172 207 269 326 58 75 65 149 147 139 131 144 110 115 119 112 137 149
330 329 328 326 326 325 326 325 325 327 328 326 323 320 313 306 264 90 140 152 159 180 175 183 181 248 189 222 121 108 88 82 102 90 155 147 140 150 155 119 141 139 141 150 160
329 328 327 324 324 325 323 324 322 323 322 320 316 313 304 252 172 54 149 157 165 189 178 188 216 252 81 80 111 126 123 177 146 137 166 153 149 138 155 122 139 140 149 155 166
330 329 328 324 325 323 321 322 321 318 316 311 306 306 272 217 65 93 134 147 172 185 197 206 338 319 45 34 156 327 158 171 139 169 158 145 162 142 128 136 142 146 154 159 167
327 328 327 324 324 323 320 320 318 313 308 301 291 291 252 210 26 130 152 165 166 194 183 242 4 355 314 355 318 17 197 176 165 171 166 175 155 164 143 146 149 158 166 162 166
326 326 324 322 323 321 319 318 315 309 301 287 256 243 252 48 38 143 156 178 175 219 198 263 314 309 337 306 355 337 198 189 186 175 170 173 165 197 154 159 160 167 169 166 168
319 321 321 320 321 319 318 316 313 305 292 252 199 227 50 18 138 160 165 166 186 173 158 288 306 283 274 324 223 268 219 96 139 179 158 210 125 165 162 171 173 172 173 175 176
321 322 321 320 320 319 318 313 307 323 127 156 197 248 138 148 180 171 193 187 175 174 221 264 269 291 261 282 186 175 6 24 128 191 163 218 129 162 174 180 176 178 175 179 181
322 320 319 319 320 320 316 301 300 239 195 225 265 222 162 163 144 162 187 178 187 165 177 223 231 273 235 328 9 335 337 345 17 154 197 194 137 153 180 185 178 182 181 186 185
321 319 318 317 318 320 320 225 218 184 214 310 56 8 128 115 151 181 176 187 166 216 211 199 246 241 7 335 321 317 320 333 44 121 192 201 186 170 174 189 180 185 186 189 192
316 317 316 316 313 312 275 262 39 355 261 219 250 267 230 293 164 158 183 199 205 208 188 204 238 324 322 298 303 315 278 60 118 118 209 156 221 186 188 196 190 188 191 192 193
315 312 314 315 311 288 264 85 358 291 251 146 188 223 175 205 200 165 188 204 208 210 214 248 87 90 271 300 299 138 7 9 2 133 196 279 212 192 192 203 200 200 195 198 196
310 309 316 315 285 109 174 118 317 227 232 121 167 145 173 226 172 143 206 204 201 223 199 252 269 260 264 267 286 285 10 340 257 281 11 293 29 177 188 201 202 200 204 198 198
312 313 316 319 335 213 64 320 286 219 183 127 134 118 163 226 121 154 180 209 212 191 230 124 223 221 239 256 300 343 344 314 290 280 278 139 252 104 183 206 208 207 200 201 197
314 309 303 203 224 357 312 299 226 230 91 126 131 172 174 187 138 138 181 226 338 232 228 272 114 270 267 276 249 301 275 240 234 266 239 51 292 127 156 218 206 204 205 197 198
315 292 234 280 79 327 291 221 222 7 187 130 146 173 181 163 134 185 184 194 211 211 211 215 227 232 241 259 220 235 252 277 259 198 40 51 265 57 66 164 200 198 197 199 196
322 208 194 278 293 295 230 233 88 68 60 112 140 151 182 175 147 149 179 191 218 267 277 255 177 197 182 233 314 235 316 299 273 296 60 149 16 69 19 9 212 184 191 191 197
197 175 192 77 230 231 244 143 41 35 37 132 166 154 141 161 232 173 185 264 296 219 263 226 140 131 197 227 257 172 241 349 291 213 261 65 112 93 47 48 81 163 177 187 194
259 226 63 128 217 240 233 82 69 22 2 219 113 303 146 148 176 183 187 40 295 234 272 87 201 126 123 177 88 286 18 216 203 230 286 126 211 60 17 21 28 116 171 183 197
235 241 62 262 230 232 57 61 48 42 13 8 71 105 92 126 190 169 140 95 1 286 244 256 270 144 180 335 80 165 200 206 353 312 309 260 98 37 20 12 9 15 164 183 191
289 207 59 241 184 56 61 17 279 27 41 72 49 54 55 78 115 143 135 29 12 321 199 215 283 193 94 112 50 324 44 275 279 148 58 315 53 70 33 5 355 5 13 322 202
3 26 99 274 100 97 117 92 48 38 36 42 66 47 49 67 129 82 111 50 14 26 105 170 241 155 183 168 184 234 74 353 316 278 138 313 91 92 32 20 7 355 344 338 225
293 175 80 61 35 35 73 49 102 44 56 55 48 130 165 79 49 116 105 76 12 29 335 275 272 287 299 53 103 176 179 348 303 292 25 307 356 35 19 18 21 8 4 5 7
356 61 2 47 52 50 65 21 60 53 40 22 75 38 7 313 190 94 16 334 149 20 247 285 258 268 6 76 211 190 201 207 289 353 306 353 333 30 28 32 29 18 17 28 46
8 337 145 61 50 8 117 50 34 33 351 51 21 5 340 4 8 333 342 353 11 325 321 315 249 247 212 207 235 238 215 255 304 320 269 292 93 48 53 65 40 32 44 43 27
23 42 292 118 27 275 49 47 30 348 105 30 338 302 255 32 335 315 301 294 291 306 315 288 279 234 252 192 244 245 234 230 340 302 319 329 49 57 55 53 60 53 57 54 53